| time (UTC) | temp F | wind direction | speed MPH | gust MPH | rain 1hr in | rain 24hr in | rain mn in | humidity % | barometer mb |
| 20260509054507 | 52 | 165 | 0.0 | 5.0 | 0.00 | 0.17 | 0.00 | 91 | 1008.0 |
| 20260509053007 | 52 | 177 | 1.0 | 5.0 | 0.00 | 0.17 | 0.00 | 91 | 1008.1 |
| 20260509051505 | 52 | 136 | 0.0 | 0.0 | 0.00 | 0.17 | 0.00 | 91 | 1007.9 |
| 20260509050010 | 52 | 158 | 0.0 | 2.0 | 0.00 | 0.17 | 0.00 | 91 | 1007.8 |
| 20260509044502 | 52 | 215 | 0.0 | 0.0 | 0.00 | 0.17 | 0.00 | 91 | 1008.0 |
| 20260509043103 | 52 | 188 | 0.0 | 1.0 | 0.00 | 0.17 | 0.00 | 91 | 1008.0 |
| 20260509041600 | 52 | 185 | 0.0 | 1.0 | 0.00 | 0.17 | 0.00 | 91 | 1008.0 |
| 20260509040058 | 52 | 159 | 0.0 | 0.0 | 0.00 | 0.17 | 0.00 | 91 | 1008.1 |
| 20260509034557 | 52 | 157 | 0.0 | 0.0 | 0.00 | 0.17 | 0.17 | 91 | 1008.2 |
| 20260509033056 | 52 | 162 | 0.0 | 0.0 | 0.00 | 0.17 | 0.17 | 90 | 1008.2 |
| 20260509031617 | 52 | 245 | 0.0 | 1.0 | 0.00 | 0.17 | 0.17 | 90 | 1008.1 |
| 20260509030057 | 53 | 146 | 0.0 | 1.0 | 0.00 | 0.17 | 0.17 | 91 | 1008.2 |
| 20260509024554 | 53 | 153 | 0.0 | 0.0 | 0.00 | 0.17 | 0.17 | 91 | 1008.2 |
| 20260509023058 | 53 | 156 | 0.0 | 1.0 | 0.00 | 0.17 | 0.17 | 91 | 1008.2 |
| 20260509021552 | 53 | 180 | 0.0 | 1.0 | 0.00 | 0.17 | 0.17 | 90 | 1008.1 |
| 20260509020051 | 53 | 198 | 0.0 | 3.0 | 0.00 | 0.17 | 0.17 | 90 | 1008.2 |
| 20260509014552 | 53 | 259 | 0.0 | 0.0 | 0.00 | 0.17 | 0.17 | 90 | 1008.1 |
| 20260509013050 | 53 | 190 | 0.0 | 2.0 | 0.00 | 0.17 | 0.17 | 90 | 1008.2 |
| 20260509011550 | 53 | 186 | 0.0 | 1.0 | 0.00 | 0.17 | 0.17 | 90 | 1008.3 |
| 20260509010049 | 53 | 195 | 0.0 | 1.0 | 0.00 | 0.17 | 0.17 | 89 | 1008.2 |
| 20260509004552 | 53 | 168 | 0.0 | 0.0 | 0.00 | 0.17 | 0.17 | 89 | 1008.2 |
| 20260509003047 | 53 | 181 | 0.0 | 4.0 | 0.00 | 0.17 | 0.17 | 89 | 1008.4 |
| 20260509001546 | 53 | 200 | 0.0 | 6.0 | 0.00 | 0.17 | 0.17 | 89 | 1008.3 |
| 20260509000101 | 54 | 222 | 0.0 | 5.0 | 0.00 | 0.17 | 0.17 | 89 | 1008.5 |
| 20260508234545 | 54 | 200 | 0.0 | 5.0 | 0.00 | 0.17 | 0.17 | 89 | 1008.5 |
| 20260508233044 | 54 | 239 | 0.0 | 1.0 | 0.00 | 0.17 | 0.17 | 88 | 1008.4 |
| 20260508231549 | 54 | 250 | 0.0 | 6.0 | 0.00 | 0.17 | 0.17 | 88 | 1008.5 |
| 20260508230042 | 54 | 203 | 0.0 | 1.0 | 0.00 | 0.17 | 0.17 | 89 | 1008.7 |
| 20260508224542 | 54 | 207 | 0.0 | 1.0 | 0.00 | 0.17 | 0.17 | 89 | 1008.6 |
| 20260508223041 | 54 | 194 | 0.0 | 1.0 | 0.00 | 0.17 | 0.17 | 89 | 1008.6 |
| 20260508221540 | 54 | 169 | 0.0 | 0.0 | 0.00 | 0.17 | 0.17 | 89 | 1008.6 |
| 20260508220043 | 54 | 283 | 0.0 | 1.0 | 0.00 | 0.17 | 0.17 | 89 | 1008.6 |
| 20260508214540 | 54 | 256 | 0.0 | 3.0 | 0.01 | 0.18 | 0.17 | 89 | 1008.5 |
| 20260508213047 | 54 | 200 | 0.0 | 1.0 | 0.02 | 0.18 | 0.17 | 89 | 1008.4 |
| 20260508211537 | 54 | 186 | 0.0 | 4.0 | 0.05 | 0.18 | 0.17 | 89 | 1008.7 |
| 20260508210035 | 53 | 201 | 0.0 | 0.0 | 0.08 | 0.18 | 0.17 | 89 | 1008.9 |
| 20260508204533 | 54 | 226 | 0.0 | 3.0 | 0.11 | 0.17 | 0.16 | 89 | 1009.2 |
| 20260508203034 | 54 | 165 | 0.0 | 5.0 | 0.10 | 0.16 | 0.15 | 88 | 1009.3 |
| 20260508201529 | 55 | 198 | 0.0 | 3.0 | 0.08 | 0.13 | 0.12 | 88 | 1009.7 |
| 20260508200038 | 56 | 183 | 0.0 | 1.0 | 0.05 | 0.10 | 0.09 | 88 | 1009.7 |
| 20260508194526 | 57 | 273 | 0.0 | 0.0 | 0.01 | 0.06 | 0.05 | 87 | 1009.9 |
| 20260508193024 | 58 | 295 | 0.0 | 0.0 | 0.02 | 0.06 | 0.05 | 84 | 1009.9 |
| 20260508191529 | 58 | 293 | 0.0 | 4.0 | 0.01 | 0.05 | 0.04 | 81 | 1010.0 |
| 20260508190032 | 59 | 255 | 0.0 | 3.0 | 0.01 | 0.05 | 0.04 | 81 | 1010.0 |
| 20260508184523 | 60 | 255 | 0.0 | 5.0 | 0.01 | 0.05 | 0.04 | 78 | 1010.0 |
| 20260508183022 | 61 | 253 | 1.0 | 7.0 | 0.00 | 0.04 | 0.03 | 71 | 1010.1 |
| 20260508181541 | 63 | 250 | 0.0 | 5.0 | 0.00 | 0.04 | 0.03 | 68 | 1010.0 |
| 20260508180019 | 64 | 262 | 0.0 | 5.0 | 0.00 | 0.04 | 0.03 | 61 | 1010.1 |
| 20260508174519 | 65 | 218 | 0.0 | 8.0 | 0.00 | 0.04 | 0.03 | 59 | 1010.3 |
| 20260508173016 | 64 | 207 | 0.0 | 8.0 | 0.00 | 0.04 | 0.03 | 60 | 1010.3 |
| 20260508171515 | 65 | 233 | 0.0 | 6.0 | 0.00 | 0.04 | 0.03 | 63 | 1010.4 |
| 20260508170014 | 63 | 242 | 1.0 | 7.0 | 0.00 | 0.04 | 0.03 | 63 | 1010.7 |
| 20260508164515 | 61 | 149 | 0.0 | 7.0 | 0.00 | 0.04 | 0.03 | 65 | 1011.1 |
| 20260508163007 | 61 | 274 | 0.0 | 1.0 | 0.00 | 0.04 | 0.03 | 67 | 1011.4 |
| 20260508161506 | 61 | 173 | 0.0 | 5.0 | 0.00 | 0.04 | 0.03 | 66 | 1011.7 |
| 20260508160005 | 62 | 242 | 0.0 | 5.0 | 0.00 | 0.04 | 0.03 | 63 | 1012.0 |
| 20260508154502 | 63 | 214 | 0.0 | 5.0 | 0.00 | 0.04 | 0.03 | 61 | 1012.0 |
| 20260508153103 | 62 | 190 | 0.0 | 4.0 | 0.00 | 0.04 | 0.03 | 64 | 1011.9 |
| 20260508151601 | 60 | 219 | 0.0 | 2.0 | 0.00 | 0.04 | 0.03 | 67 | 1012.0 |
| 20260508150052 | 59 | 176 | 2.0 | 8.0 | 0.00 | 0.04 | 0.03 | 65 | 1012.3 |
| 20260508144552 | 58 | 253 | 0.0 | 8.0 | 0.00 | 0.04 | 0.03 | 66 | 1012.4 |
| 20260508143048 | 58 | 240 | 0.0 | 9.0 | 0.00 | 0.04 | 0.03 | 67 | 1012.5 |
| 20260508141554 | 57 | 233 | 0.0 | 4.0 | 0.00 | 0.04 | 0.03 | 70 | 1012.4 |
| 20260508140052 | 55 | 239 | 0.0 | 5.0 | 0.00 | 0.04 | 0.03 | 73 | 1012.7 |
| 20260508134538 | 54 | 207 | 0.0 | 5.0 | 0.00 | 0.04 | 0.03 | 74 | 1012.8 |
| 20260508133038 | 53 | 203 | 0.0 | 2.0 | 0.00 | 0.04 | 0.03 | 74 | 1012.9 |
| 20260508131537 | 53 | 222 | 0.0 | 7.0 | 0.00 | 0.04 | 0.03 | 73 | 1012.7 |
| 20260508130037 | 54 | 181 | 0.0 | 4.0 | 0.00 | 0.04 | 0.03 | 74 | 1012.6 |
| 20260508124535 | 53 | 232 | 0.0 | 6.0 | 0.00 | 0.04 | 0.03 | 75 | 1012.8 |
| 20260508123032 | 52 | 150 | 0.0 | 5.0 | 0.00 | 0.04 | 0.03 | 78 | 1012.8 |
| 20260508121531 | 51 | 158 | 0.0 | 3.0 | 0.00 | 0.04 | 0.03 | 79 | 1012.7 |
| 20260508120037 | 51 | 193 | 0.0 | 5.0 | 0.00 | 0.04 | 0.03 | 79 | 1012.5 |
| 20260508114529 | 50 | 236 | 0.0 | 4.0 | 0.00 | 0.04 | 0.03 | 80 | 1012.5 |
| 20260508113028 | 49 | 217 | 0.0 | 1.0 | 0.01 | 0.04 | 0.03 | 84 | 1012.6 |
| 20260508111539 | 48 | 246 | 0.0 | 0.0 | 0.01 | 0.04 | 0.03 | 87 | 1012.7 |
| 20260508110027 | 48 | 134 | 0.0 | 0.0 | 0.01 | 0.04 | 0.03 | 87 | 1012.6 |
| 20260508104527 | 48 | 220 | 0.0 | 0.0 | 0.01 | 0.04 | 0.03 | 86 | 1012.6 |
| 20260508103031 | 49 | 283 | 0.0 | 0.0 | 0.00 | 0.03 | 0.02 | 85 | 1012.6 |
| 20260508101534 | 49 | 221 | 0.0 | 7.0 | 0.00 | 0.03 | 0.02 | 84 | 1012.5 |
| 20260508100028 | 48 | 219 | 0.0 | 1.0 | 0.01 | 0.03 | 0.02 | 85 | 1012.8 |
| 20260508094523 | 49 | 155 | 0.0 | 6.0 | 0.02 | 0.03 | 0.02 | 85 | 1012.4 |
| 20260508093022 | 49 | 218 | 0.0 | 6.0 | 0.02 | 0.03 | 0.02 | 84 | 1012.9 |
| 20260508091521 | 49 | 228 | 0.0 | 4.0 | 0.02 | 0.03 | 0.02 | 84 | 1013.1 |
| 20260508090021 | 50 | 234 | 0.0 | 6.0 | 0.01 | 0.02 | 0.01 | 82 | 1013.4 |
| 20260508084621 | 51 | 257 | 1.0 | 5.0 | 0.00 | 0.01 | 0.00 | 77 | 1013.2 |
| 20260508083018 | 52 | 237 | 0.0 | 5.0 | 0.00 | 0.01 | 0.00 | 74 | 1012.5 |
| 20260508081517 | 51 | 142 | 0.0 | 3.0 | 0.00 | 0.01 | 0.00 | 74 | 1012.4 |
| 20260508080016 | 51 | 240 | 0.0 | 3.0 | 0.00 | 0.01 | 0.00 | 77 | 1012.5 |
| 20260508074515 | 51 | 172 | 0.0 | 7.0 | 0.00 | 0.01 | 0.00 | 76 | 1012.5 |
| 20260508073012 | 51 | 138 | 1.0 | 12.0 | 0.00 | 0.01 | 0.00 | 75 | 1012.8 |
| 20260508071508 | 51 | 111 | 0.0 | 2.0 | 0.00 | 0.01 | 0.00 | 74 | 1012.9 |
| 20260508070008 | 50 | 307 | 0.0 | 2.0 | 0.00 | 0.01 | 0.00 | 75 | 1013.1 |
| 20260508064506 | 50 | 230 | 0.0 | 4.0 | 0.00 | 0.01 | 0.00 | 75 | 1012.9 |
| 20260508063005 | 50 | 319 | 0.0 | 4.0 | 0.00 | 0.01 | 0.00 | 76 | 1012.9 |
| 20260508061507 | 50 | 203 | 0.0 | 4.0 | 0.00 | 0.01 | 0.00 | 77 | 1012.9 |
| 20260508060004 | 50 | 108 | 0.0 | 4.0 | 0.00 | 0.01 | 0.00 | 77 | 1012.9 |